Alexandroupolis, Greece

8:59 PM EET on January 22, 2017 (GMT +0200)
Dimokritos

Weather History for LGAL - October, 2012

Change the Weather History Date:

Monday, October 22, 2012

  Actual Average Record
Temperature  
Mean Temperature 64 °F -  
Max Temperature 68 °F 61 °F 75 °F (2003)
Min Temperature 60 °F 46 °F 41 °F (1997)
Degree Days  
Heating Degree Days 1    
Growing Degree Days 14 (Base 50)    
Moisture  
Dew Point 53 °F    
Average Humidity 68    
Maximum Humidity 88    
Minimum Humidity 49    
Precipitation  
Precipitation 0.00 in 0.09 in - ()
Sea Level Pressure  
Sea Level Pressure 30.02 in    
Wind  
Wind Speed 15 mph ()    
Max Wind Speed 24 mph    
Max Gust Speed 41 mph    
Visibility 6.2 miles    
Events Rain    
Averages and records for this station are not official NWS values.
T = Trace of Precipitation, MM = Missing Value Source: Averaged Metar Reports

Daily Weather History Graph

Daily Weather History Graph

Search for Another Location

Airport or City:

Trip Planner

Search our weather history database for the weather conditions in past years. The results will help you decide how hot, cold, wet, or windy it might be!

Date:

Astronomy

Oct. 22, 2012 Rise Set
Actual Time 7:35 AM EEST 6:25 PM EEST
Civil Twilight 7:07 AM EEST 6:53 PM EEST
Nautical Twilight 6:35 AM EEST 7:25 PM EEST
Astronomical Twilight 6:03 AM EEST 7:56 PM EEST
Moon 2:23 PM EEST No Moon Set
Length of Visible Light 11h 45m
Length of Day
10h 49m
First Quarter, 53% of the Moon is Illuminated
Oct 22
First Quarter
Oct 29
Full
Nov 7
Last Quarter
Nov 14
New
Nov 20
First Quarter

Hourly Weather History & Observations

Time (EEST) Temp. Dew Point Humidity Pressure Visibility Wind Dir Wind Speed Gust Speed Precip Events Conditions
12:20 AM 64.4 °F 51.8 °F 64% 30.04 in 6.2 mi NNE 20.7 mph 32.2 mph N/A   Mostly Cloudy
12:50 AM 64.4 °F 53.6 °F 68% 30.06 in 6.2 mi NNE 15.0 mph - N/A Rain Light Rain
1:20 AM 64.4 °F 53.6 °F 68% 30.06 in 6.2 mi NNE 15.0 mph - N/A   Mostly Cloudy
1:50 AM 64.4 °F 53.6 °F 68% 30.06 in 6.2 mi North 17.3 mph - N/A   Mostly Cloudy
2:20 AM 64.4 °F 53.6 °F 68% 30.06 in 6.2 mi North 17.3 mph - N/A   Mostly Cloudy
2:50 AM 62.6 °F 51.8 °F 68% 30.04 in 6.2 mi North 17.3 mph - N/A   Mostly Cloudy
3:00 AM 63 °F 52 °F 59% 30.05 in 6 mi North 17.3 mph - -   Partly Cloudy
3:20 AM 62.6 °F 53.6 °F 72% 30.04 in 6.2 mi North 17.3 mph - N/A   Mostly Cloudy
3:50 AM 62.6 °F 53.6 °F 72% 30.04 in 6.2 mi North 11.5 mph - N/A   Mostly Cloudy
4:20 AM 62.6 °F 53.6 °F 72% 30.04 in 6.2 mi North 11.5 mph - N/A   Mostly Cloudy
4:50 AM 62.6 °F 53.6 °F 72% 30.04 in 6.2 mi North 11.5 mph - N/A   Mostly Cloudy
5:20 AM 62.6 °F 53.6 °F 72% 30.04 in 6.2 mi North 17.3 mph - N/A   Mostly Cloudy
5:50 AM 62.6 °F 53.6 °F 72% 30.04 in 6.2 mi North 17.3 mph - N/A   Mostly Cloudy
6:20 AM 60.8 °F 53.6 °F 77% 30.04 in 6.2 mi North 16.1 mph - N/A   Mostly Cloudy
6:50 AM 60.8 °F 51.8 °F 72% 30.04 in 6.2 mi North 16.1 mph - N/A   Mostly Cloudy
7:20 AM 60.8 °F 51.8 °F 72% 30.04 in 6.2 mi North 18.4 mph - N/A Rain Light Rain
7:50 AM 60.8 °F 51.8 °F 72% 30.04 in 6.2 mi North 12.7 mph - N/A   Mostly Cloudy
8:20 AM 60.8 °F 51.8 °F 72% 30.04 in 6.2 mi North 12.7 mph - N/A   Mostly Cloudy
8:50 AM 60.8 °F 57.2 °F 88% 30.06 in 6.2 mi North 10.4 mph - N/A   Mostly Cloudy
9:00 AM 60 °F 57 °F 86% 30.06 in 6 mi North 10.4 mph - -   Partly Cloudy
9:20 AM 60.8 °F 57.2 °F 88% 30.06 in 6.2 mi North 10.4 mph - N/A   Mostly Cloudy
9:50 AM 60.8 °F 57.2 °F 88% 30.06 in 6.2 mi North 16.1 mph - N/A   Mostly Cloudy
10:20 AM 60.8 °F 57.2 °F 88% 30.06 in 6.2 mi North 16.1 mph - N/A   Mostly Cloudy
10:50 AM 60.8 °F 55.4 °F 82% 30.06 in 6.2 mi North 15.0 mph - N/A   Mostly Cloudy
11:20 AM 60.8 °F 55.4 °F 82% 30.06 in 6.2 mi North 15.0 mph - N/A   Mostly Cloudy
11:50 AM 66.2 °F 55.4 °F 68% 30.04 in 6.2 mi North 17.3 mph - N/A   Scattered Clouds
12:20 PM 66.2 °F 55.4 °F 68% 30.04 in 6.2 mi NNE 20.7 mph - N/A   Scattered Clouds
12:50 PM 66.2 °F 55.4 °F 68% 30.01 in 6.2 mi NNE 19.6 mph 31.1 mph N/A   Mostly Cloudy
1:20 PM 66.2 °F 55.4 °F 68% 30.01 in 6.2 mi NNE 19.6 mph 31.1 mph N/A   Mostly Cloudy
1:50 PM 68.0 °F 55.4 °F 64% 30.01 in 6.2 mi NNE 17.3 mph 28.8 mph N/A   Mostly Cloudy
2:20 PM 68.0 °F 55.4 °F 64% 30.01 in 6.2 mi NNE 17.3 mph 28.8 mph N/A   Mostly Cloudy
2:50 PM 66.2 °F 53.6 °F 64% 29.98 in 6.2 mi North 19.6 mph - N/A   Mostly Cloudy
3:00 PM 67 °F 53 °F 50% 30.00 in 6 mi North 19.6 mph - -   Partly Cloudy
3:20 PM 66.2 °F 53.6 °F 64% 29.98 in 6.2 mi NNE 16.1 mph - N/A   Mostly Cloudy
3:50 PM 66.2 °F 51.8 °F 60% 29.98 in 6.2 mi North 20.7 mph 36.8 mph N/A   Mostly Cloudy
4:20 PM 66.2 °F 51.8 °F 60% 29.98 in 6.2 mi North 21.9 mph 41.4 mph N/A   Mostly Cloudy
4:50 PM 68.0 °F 50.0 °F 52% 29.98 in 6.2 mi North 21.9 mph 38.0 mph N/A   Mostly Cloudy
5:20 PM 68.0 °F 50.0 °F 52% 29.98 in 6.2 mi North 18.4 mph 31.1 mph N/A   Mostly Cloudy
5:50 PM 66.2 °F 51.8 °F 60% 29.98 in 6.2 mi NNE 21.9 mph 34.5 mph N/A   Mostly Cloudy
6:20 PM 66.2 °F 51.8 °F 60% 29.98 in 6.2 mi North 24.2 mph - N/A   Mostly Cloudy
6:50 PM 64.4 °F 51.8 °F 64% 29.98 in 6.2 mi North 18.4 mph 29.9 mph N/A   Mostly Cloudy
7:20 PM 64.4 °F 51.8 °F 64% 29.98 in 6.2 mi North 16.1 mph 27.6 mph N/A   Mostly Cloudy
7:50 PM 64.4 °F 51.8 °F 64% 29.98 in 6.2 mi North 18.4 mph 29.9 mph N/A   Mostly Cloudy
8:20 PM 64.4 °F 51.8 °F 64% 29.98 in 6.2 mi North 15.0 mph 26.5 mph N/A   Mostly Cloudy
8:50 PM 66.2 °F 51.8 °F 60% 30.01 in 6.2 mi North 15.0 mph 28.8 mph N/A   Mostly Cloudy
9:00 PM 66 °F 51 °F 49% 30.01 in 6 mi North 15.0 mph - -   Partly Cloudy
9:20 PM 66.2 °F 51.8 °F 60% 30.01 in 6.2 mi North 17.3 mph - N/A   Mostly Cloudy
9:50 PM 66.2 °F 51.8 °F 60% 30.01 in 6.2 mi NNE 13.8 mph - N/A   Mostly Cloudy
10:20 PM 66.2 °F 51.8 °F 60% 30.01 in 6.2 mi NNE 13.8 mph - N/A   Mostly Cloudy
10:50 PM 64.4 °F 51.8 °F 64% 30.01 in 6.2 mi NNE 17.3 mph 29.9 mph N/A   Mostly Cloudy
11:20 PM 64.4 °F 51.8 °F 64% 30.01 in 6.2 mi NNE 17.3 mph 29.9 mph N/A   Mostly Cloudy
11:50 PM 64.4 °F 51.8 °F 64% 30.01 in 6.2 mi NNE 18.4 mph 29.9 mph N/A   Mostly Cloudy